Weather in Molodohvardiisk

Ukraine / Luhansk Region     48°20′45″N   39°39′08″E
temp.,
°C
wind,
m/s
gust,
m/s
humid.,
%
clouds,
%
prec.,
mm/h
press.,
hPa
HPBL,
m
19 april, mon
mon1900:00+10wnw0077100 0.1 101621
03:00+10ne117859 0.2 101617
06:00+9ne2381100 0.0 1015110
09:00+11ene337177 0.0 1015609
12:00+14ese226098 0.3 10141375
15:00+14ene2161100 0.6 1013832
18:00+13se227394 0.3 101337
21:00+11sw2281100 0.3 101461
20 april, tue
tue2000:00+10ese1187100 0.0 101211
03:00+9se2487100 0.0 101179
06:00+9ene4995100 1.3 1008382
09:00+10e41097100 5.6 1006394
12:00+13se9169298 10.3 1002904
15:00+14s9148741 10.9 1002953
18:00+13ssw10187518 0.1 10011428
21:00+10ssw121985100 0.1 10031107
21 april, wed
wed2100:00+9ssw111886100 0.1 10051177
03:00+9sw81487100 0.3 1009859
06:00+9sw71289100 0.0 1012586
09:00+12wsw7107030 0.1 1014963
12:00+15wsw785098 0.1 10151995
15:00+15sw684854 0.3 10151866
18:00+13sw6961100 0.0 1016563
21:00+10sw51176100 0.0 1018288
22 april, thu
thu2200:00+8sw478360 0.0 1019127
03:00+8sw358880 0.0 1020104
06:00+8ssw358496 0.0 1021138
09:00+12wsw3467100 0.0 1022480
12:00+15sw3455100 1.3 10221301
15:00+16sw455099 1.8 10211567
18:00+14wsw456384 0.2 1022510
21:00+10sw34761 0.2 102247
23 april, fri
fri2300:00+9sw33826 0.0 102254
03:00+8sw35825 0.0 102282
06:00+7sw36855 0.0 1022117
09:00+13sw45635 0.0 1022672
12:00+16wsw555219 1.1 10211599
15:00+18wsw5643100 2.3 10202393
18:00+15ssw475986 0.0 1019240
21:00+11sw510755 0.0 1020214